Location: Unspecified
(0.0000°N, 0.0000°E)
Time: 23:32:53
(UTC+00:00)

deb Blok Kosmos - Pass Details

Date: 08 December 2025
Orbit: 1262 x 1713 km, 55.4° (Epoch: 19 January)

Event Time Altitude Azimuth Distance (km) Brightness Sun altitude
Rises 19:00:35 0° 169° (S) 4,489 ? -15.7°
Reaches altitude 10° 19:08:03 10° 128° (SE) 3,660 ? -17.4°
Maximum altitude 19:08:52 10° 123° (ESE) 3,666 ? -17.6°
Drops below altitude 10° 19:09:42 10° 117° (ESE) 3,693 ? -17.8°
Enters shadow 19:10:51 - 110° (ESE) 3,765 ? -18.1°
